Location: Aalen
(48.8330°N, 10.1000°E)
Time: 09:01:35
(UTC+02:00)

Transit 2A - Pass Details

Date: 02 August 2021
Orbit: 594 x 964 km, 66.7° (Epoch: 24 September)

Event Time Altitude Azimuth Distance (km) Brightness Sun altitude
Rises 10:07:15 0° 281° (W) 2,927 8.6 39.4°
Reaches altitude 10° 10:10:35 10° 308° (NW) 2,082 7.9 39.9°
Maximum altitude 10:13:01 14° 339° (NNW) 1,882 7.9 40.3°
Drops below altitude 10° 10:15:34 10° 10° (N) 2,193 8.4 40.7°
Sets 10:19:15 0° 36° (NE) 3,207 9.4 41.2°
